Location: *
(60.1759°S, 155.0663°W)
Time: 16:45:45
(UTC+00:00)

In-Cosmos 22 Rocket - Pass Details

Date: 17 September 2019
Orbit: 790 x 889 km, 81.2° (Epoch: 15 October)

Event Time Altitude Azimuth Distance (km) Brightness Sun altitude
Exits shadow 12:26:28 54° 245° (WSW) 1,022 4.4 -26.8°
Maximum altitude 12:26:28 54° 245° (WSW) 1,022 4.4 -26.8°
Drops below altitude 10° 12:32:05 10° 167° (SSE) 2,519 7.5 -26.4°
Sets 12:34:38 0° 162° (SSE) 3,476 8.5 -26.2°
